Location: Grevenbroich
(51.0902°N, 6.5859°E)
Time: 01:46:58
(UTC+01:00)

ISS - Pass Details

Date: 17 February 2026
Orbit: 416 x 427 km, 51.6° (Epoch: 7 March)

Event Time Altitude Azimuth Distance (km) Brightness Sun altitude
Exits shadow 05:37:24 25° 173° (S) 874 -2.2 -20.3°
Maximum altitude 05:38:09 28° 148° (SSE) 813 -2.1 -20.2°
Drops below altitude 10° 05:41:04 10° 87° (E) 1,495 0.3 -19.7°
Sets 05:43:20 0° 76° (ENE) 2,360 1.6 -19.4°
